TimeEDT,TemperatureF,Dew PointF,Humidity,Sea Level PressureIn,VisibilityMPH,Wind Direction,Wind SpeedMPH,Gust SpeedMPH,PrecipitationIn,Events,Conditions,WindDirDegrees,DateUTC
12:51 AM,53.1,30.9,43,30.24,10.0,Calm,Calm,-,N/A,,Clear,0,2013-05-06 04:51:00
1:51 AM,46.9,32.0,56,30.24,10.0,South,4.6,-,N/A,,Clear,170,2013-05-06 05:51:00
2:51 AM,46.0,33.1,61,30.23,10.0,Calm,Calm,-,N/A,,Clear,0,2013-05-06 06:51:00
3:51 AM,42.1,33.1,70,30.24,10.0,Calm,Calm,-,N/A,,Clear,0,2013-05-06 07:51:00
4:51 AM,39.9,33.1,77,30.24,10.0,South,3.5,-,N/A,,Clear,180,2013-05-06 08:51:00
5:51 AM,39.0,34.0,82,30.25,10.0,Calm,Calm,-,N/A,,Clear,0,2013-05-06 09:51:00
6:51 AM,43.0,37.0,80,30.26,10.0,Calm,Calm,-,N/A,,Clear,0,2013-05-06 10:51:00
7:51 AM,48.9,37.9,66,30.26,10.0,Calm,Calm,-,N/A,,Clear,0,2013-05-06 11:51:00
8:51 AM,54.0,39.9,59,30.27,10.0,Calm,Calm,-,N/A,,Clear,0,2013-05-06 12:51:00
9:51 AM,62.1,39.9,44,30.25,10.0,Calm,Calm,-,N/A,,Clear,0,2013-05-06 13:51:00
10:51 AM,69.1,30.9,24,30.23,10.0,South,5.8,-,N/A,,Clear,190,2013-05-06 14:51:00
11:51 AM,72.0,30.9,22,30.22,10.0,South,8.1,-,N/A,,Clear,180,2013-05-06 15:51:00
12:51 PM,73.0,33.1,23,30.20,10.0,Variable,5.8,-,N/A,,Clear,0,2013-05-06 16:51:00
1:51 PM,73.9,30.9,21,30.18,10.0,Variable,6.9,-,N/A,,Clear,0,2013-05-06 17:51:00
2:51 PM,75.0,26.1,16,30.16,10.0,SSE,8.1,-,N/A,,Clear,160,2013-05-06 18:51:00
3:51 PM,75.0,15.1,10,30.14,10.0,South,5.8,-,N/A,,Clear,170,2013-05-06 19:51:00
4:51 PM,75.9,12.0,9,30.13,10.0,ESE,5.8,-,N/A,,Clear,110,2013-05-06 20:51:00
5:51 PM,75.0,19.0,12,30.12,10.0,SSE,6.9,-,N/A,,Clear,150,2013-05-06 21:51:00
6:51 PM,72.0,27.0,19,30.11,10.0,South,5.8,-,N/A,,Clear,180,2013-05-06 22:51:00
7:51 PM,66.9,23.0,19,30.12,10.0,South,10.4,-,N/A,,Clear,190,2013-05-06 23:51:00
8:51 PM,62.1,19.0,19,30.13,10.0,South,8.1,-,N/A,,Clear,180,2013-05-07 00:51:00
9:51 PM,60.1,21.9,23,30.15,10.0,South,9.2,-,N/A,,Clear,170,2013-05-07 01:51:00
10:51 PM,57.9,21.0,24,30.15,10.0,Calm,Calm,-,N/A,,Clear,0,2013-05-07 02:51:00
11:51 PM,57.9,21.9,25,30.15,10.0,SSW,4.6,-,N/A,,Clear,200,2013-05-07 03:51:00